Back to catalog

STARLINK-34320

AliveCommunicationsVLEO
NORAD 64217·PAYLOAD·🇺🇸 United States

Launched May 31, 2025 from Vandenberg Space Force Base

Loading…

Next Passes (next 24 hours)

TLE

FreshSource: CelesTrak SupGP

Epoch: Sep 14, 2026, 21:32 UTC

1 64217C 25117Q   26257.89770833  .00038018  00000+0  11233-2 0  2571
2 64217  53.1578 237.6827 0001403  96.3689  46.7662 15.34369617    12

Track STARLINK-34320 in real time with AllMySat

Download on the App Store